Time,TemperatureF,DewpointF,PressureIn,WindDirection,WindDirectionDegrees,WindSpeedMPH,WindSpeedGustMPH,Humidity,HourlyPrecipIn,Conditions,Clouds,dailyrainin,SolarRadiationWatts/m^2,SoftwareType,DateUTC
2013-07-15 00:01:00,76.2,71.7,30.26,ESE,119,1.2,0.0,86,0.00,SCT,,0.00,0.0,WeatherDisplay:10.37,2013-07-15 04:01:00,
2013-07-15 00:02:00,76.2,71.7,30.26,ESE,119,1.2,1.2,86,0.00,SCT,,0.00,0.0,WeatherDisplay:10.37,2013-07-15 04:02:00,
2013-07-15 00:07:00,76.1,71.6,30.26,ESE,119,1.2,0.0,86,0.00,SCT,,0.00,0.0,WeatherDisplay:10.37,2013-07-15 04:07:00,
2013-07-15 00:12:00,75.8,71.3,30.26,SE,128,0.0,0.0,86,0.00,SCT,,0.00,0.0,WeatherDisplay:10.37,2013-07-15 04:12:00,
2013-07-15 00:17:00,75.6,71.5,30.26,SE,128,0.0,0.0,87,0.00,SCT,,0.00,0.0,WeatherDisplay:10.37,2013-07-15 04:17:00,
2013-07-15 00:22:00,75.4,71.3,30.26,SE,128,0.0,0.0,87,0.00,SCT,,0.00,0.0,WeatherDisplay:10.37,2013-07-15 04:22:00,
2013-07-15 00:27:00,75.3,71.2,30.26,SE,128,0.0,0.0,87,0.00,SCT,,0.00,0.0,WeatherDisplay:10.37,2013-07-15 04:27:00,
2013-07-15 00:32:00,75.1,71.3,30.26,SE,128,0.0,0.0,88,0.00,SCT,,0.00,0.0,WeatherDisplay:10.37,2013-07-15 04:32:00,
2013-07-15 00:37:00,75.0,71.2,30.26,SE,128,0.0,0.0,88,0.00,SCT,,0.00,0.0,WeatherDisplay:10.37,2013-07-15 04:37:00,
2013-07-15 00:42:00,74.8,71.0,30.26,SE,128,0.0,0.0,88,0.00,SCT,,0.00,0.0,WeatherDisplay:10.37,2013-07-15 04:42:00,
2013-07-15 00:47:00,74.7,71.2,30.26,SE,128,0.0,0.0,89,0.00,SCT,,0.00,0.0,WeatherDisplay:10.37,2013-07-15 04:47:00,
2013-07-15 00:52:00,74.6,71.1,30.25,SE,128,0.0,0.0,89,0.00,SCT,,0.00,0.0,WeatherDisplay:10.37,2013-07-15 04:52:00,
2013-07-15 00:57:00,74.4,70.9,30.26,SE,128,0.0,0.0,89,0.00,SCT,,0.00,0.0,WeatherDisplay:10.37,2013-07-15 04:57:00,
2013-07-15 01:02:00,74.3,70.8,30.26,SE,128,0.0,0.0,89,0.00,SCT,,0.00,0.0,WeatherDisplay:10.37,2013-07-15 05:02:00,
2013-07-15 01:07:00,74.1,71.0,30.26,SE,128,1.2,0.0,90,0.00,SCT,,0.00,0.0,WeatherDisplay:10.37,2013-07-15 05:07:00,
2013-07-15 01:12:00,74.0,70.9,30.26,SE,128,0.0,0.0,90,0.00,SCT,,0.00,0.0,WeatherDisplay:10.37,2013-07-15 05:12:00,
2013-07-15 01:17:00,74.0,70.9,30.25,SE,128,0.0,0.0,90,0.00,SCT,,0.00,0.0,WeatherDisplay:10.37,2013-07-15 05:17:00,
2013-07-15 01:22:00,74.0,70.9,30.25,SE,128,1.2,0.0,90,0.00,SCT,,0.00,0.0,WeatherDisplay:10.37,2013-07-15 05:22:00,
2013-07-15 01:27:00,73.9,70.8,30.25,SE,128,0.0,0.0,90,0.00,SCT,,0.00,0.0,WeatherDisplay:10.37,2013-07-15 05:27:00,
2013-07-15 01:32:00,73.9,70.8,30.25,SE,128,0.0,0.0,90,0.00,SCT,,0.00,0.0,WeatherDisplay:10.37,2013-07-15 05:32:00,
2013-07-15 01:37:00,73.9,70.8,30.25,SE,128,1.2,0.0,90,0.00,SCT,,0.00,0.0,WeatherDisplay:10.37,2013-07-15 05:37:00,
2013-07-15 01:42:00,74.0,70.9,30.25,SE,128,0.0,0.0,90,0.00,SCT,,0.00,0.0,WeatherDisplay:10.37,2013-07-15 05:42:00,
2013-07-15 01:47:00,74.0,70.9,30.25,SE,128,0.0,0.0,90,0.00,SCT,,0.00,0.0,WeatherDisplay:10.37,2013-07-15 05:47:00,
2013-07-15 01:52:00,73.9,70.8,30.25,SE,128,0.0,0.0,90,0.00,SCT,,0.00,0.0,WeatherDisplay:10.37,2013-07-15 05:52:00,
2013-07-15 01:57:00,73.9,70.5,30.25,SE,128,1.2,1.2,89,0.00,SCT,,0.00,0.0,WeatherDisplay:10.37,2013-07-15 05:57:00,
2013-07-15 02:02:00,73.8,70.4,30.25,SE,128,0.0,0.0,89,0.00,CLR,,0.00,0.0,WeatherDisplay:10.37,2013-07-15 06:02:00,
2013-07-15 02:07:00,73.8,70.4,30.25,SE,128,0.0,0.0,89,0.00,CLR,,0.00,0.0,WeatherDisplay:10.37,2013-07-15 06:07:00,
2013-07-15 02:12:00,73.7,70.3,30.25,SE,128,0.0,0.0,89,0.00,CLR,,0.00,0.0,WeatherDisplay:10.37,2013-07-15 06:12:00,
2013-07-15 02:17:00,73.7,70.6,30.26,SE,128,0.0,0.0,90,0.00,CLR,,0.00,0.0,WeatherDisplay:10.37,2013-07-15 06:17:00,
2013-07-15 02:22:00,73.6,70.5,30.25,SE,128,0.0,0.0,90,0.00,CLR,,0.00,0.0,WeatherDisplay:10.37,2013-07-15 06:22:00,
2013-07-15 02:27:00,73.5,70.4,30.25,SE,128,0.0,0.0,90,0.00,CLR,,0.00,0.0,WeatherDisplay:10.37,2013-07-15 06:27:00,
2013-07-15 02:32:00,73.4,70.3,30.25,SE,128,0.0,0.0,90,0.00,CLR,,0.00,0.0,WeatherDisplay:10.37,2013-07-15 06:32:00,
2013-07-15 02:37:00,73.4,70.6,30.26,SE,128,0.0,0.0,91,0.00,CLR,,0.00,0.0,WeatherDisplay:10.37,2013-07-15 06:37:00,
2013-07-15 02:42:00,73.4,70.6,30.25,SE,128,0.0,0.0,91,0.00,CLR,,0.00,0.0,WeatherDisplay:10.37,2013-07-15 06:42:00,
2013-07-15 02:47:00,73.4,70.6,30.25,SE,128,0.0,0.0,91,0.00,CLR,,0.00,0.0,WeatherDisplay:10.37,2013-07-15 06:47:00,
2013-07-15 02:52:00,73.4,70.6,30.25,SE,128,0.0,0.0,91,0.00,CLR,,0.00,0.0,WeatherDisplay:10.37,2013-07-15 06:52:00,
2013-07-15 02:57:00,73.3,70.5,30.25,SE,132,0.0,0.0,91,0.00,CLR,,0.00,0.0,WeatherDisplay:10.37,2013-07-15 06:57:00,
2013-07-15 03:02:00,73.3,70.5,30.25,SE,132,0.0,0.0,91,0.00,CLR,,0.00,0.0,WeatherDisplay:10.37,2013-07-15 07:02:00,
2013-07-15 03:07:00,73.3,70.5,30.25,SE,132,0.0,0.0,91,0.00,CLR,,0.00,0.0,WeatherDisplay:10.37,2013-07-15 07:07:00,
2013-07-15 03:12:00,73.3,70.5,30.25,SE,132,0.0,0.0,91,0.00,CLR,,0.00,0.0,WeatherDisplay:10.37,2013-07-15 07:12:00,
2013-07-15 03:17:00,73.2,70.4,30.25,SE,132,0.0,0.0,91,0.00,CLR,,0.00,0.0,WeatherDisplay:10.37,2013-07-15 07:17:00,
2013-07-15 03:22:00,73.2,70.4,30.25,SE,132,0.0,0.0,91,0.00,CLR,,0.00,0.0,WeatherDisplay:10.37,2013-07-15 07:22:00,
2013-07-15 03:27:00,73.0,70.2,30.25,SE,132,0.0,0.0,91,0.00,CLR,,0.00,0.0,WeatherDisplay:10.37,2013-07-15 07:27:00,
2013-07-15 03:32:00,73.0,70.2,30.26,SE,132,0.0,0.0,91,0.00,CLR,,0.00,0.0,WeatherDisplay:10.37,2013-07-15 07:32:00,
2013-07-15 03:37:00,72.9,70.4,30.26,SE,132,0.0,0.0,92,0.00,CLR,,0.00,0.0,WeatherDisplay:10.37,2013-07-15 07:37:00,
2013-07-15 03:42:00,72.8,70.3,30.26,SE,132,0.0,0.0,92,0.00,CLR,,0.00,0.0,WeatherDisplay:10.37,2013-07-15 07:42:00,
2013-07-15 03:47:00,72.7,70.6,30.26,SE,132,0.0,0.0,93,0.00,CLR,,0.00,0.0,WeatherDisplay:10.37,2013-07-15 07:47:00,
2013-07-15 03:52:00,72.6,70.5,30.26,SE,132,0.0,0.0,93,0.00,CLR,,0.00,0.0,WeatherDisplay:10.37,2013-07-15 07:52:00,
2013-07-15 03:57:00,72.6,70.1,30.26,SE,132,0.0,0.0,92,0.00,CLR,,0.00,0.0,WeatherDisplay:10.37,2013-07-15 07:57:00,
2013-07-15 04:02:00,72.5,70.4,30.26,SE,132,0.0,0.0,93,0.00,CLR,,0.00,0.0,WeatherDisplay:10.37,2013-07-15 08:02:00,
2013-07-15 04:07:00,72.4,70.3,30.26,SE,132,0.0,0.0,93,0.00,CLR,,0.00,0.0,WeatherDisplay:10.37,2013-07-15 08:07:00,
2013-07-15 04:12:00,72.4,70.3,30.26,SE,132,0.0,0.0,93,0.00,CLR,,0.00,0.0,WeatherDisplay:10.37,2013-07-15 08:12:00,
2013-07-15 04:17:00,72.4,70.3,30.26,SE,132,0.0,0.0,93,0.00,CLR,,0.00,0.0,WeatherDisplay:10.37,2013-07-15 08:17:00,
2013-07-15 04:22:00,72.5,70.4,30.26,SE,132,0.0,0.0,93,0.00,CLR,,0.00,0.0,WeatherDisplay:10.37,2013-07-15 08:22:00,
2013-07-15 04:27:00,72.5,70.4,30.26,SE,132,0.0,0.0,93,0.00,CLR,,0.00,0.0,WeatherDisplay:10.37,2013-07-15 08:27:00,
2013-07-15 04:32:00,72.5,70.4,30.26,SE,132,0.0,0.0,93,0.00,CLR,,0.00,0.0,WeatherDisplay:10.37,2013-07-15 08:32:00,
2013-07-15 04:37:00,72.4,70.3,30.26,SE,132,0.0,0.0,93,0.00,CLR,,0.00,0.0,WeatherDisplay:10.37,2013-07-15 08:37:00,
2013-07-15 04:42:00,72.3,70.5,30.26,SE,132,0.0,0.0,94,0.00,CLR,,0.00,0.0,WeatherDisplay:10.37,2013-07-15 08:42:00,
2013-07-15 04:47:00,72.2,70.4,30.26,SE,132,0.0,0.0,94,0.00,CLR,,0.00,0.0,WeatherDisplay:10.37,2013-07-15 08:47:00,
2013-07-15 04:52:00,72.1,70.3,30.26,SE,132,0.0,0.0,94,0.00,CLR,,0.00,0.0,WeatherDisplay:10.37,2013-07-15 08:52:00,
2013-07-15 04:57:00,72.1,70.6,30.26,SE,132,0.0,0.0,95,0.00,CLR,,0.00,0.0,WeatherDisplay:10.37,2013-07-15 08:57:00,
2013-07-15 05:02:00,72.2,70.7,30.26,SE,132,1.0,1.0,95,0.00,CLR,,0.00,0.0,WeatherDisplay:10.37,2013-07-15 09:02:00,
2013-07-15 05:07:00,72.2,70.7,30.26,SE,132,1.2,1.2,95,0.00,CLR,,0.00,0.0,WeatherDisplay:10.37,2013-07-15 09:07:00,
2013-07-15 05:12:00,72.2,70.7,30.26,SE,132,0.0,0.0,95,0.00,CLR,,0.00,0.0,WeatherDisplay:10.37,2013-07-15 09:12:00,
2013-07-15 05:17:00,72.2,70.7,30.26,SE,132,0.0,0.0,95,0.00,CLR,,0.00,0.0,WeatherDisplay:10.37,2013-07-15 09:17:00,
2013-07-15 05:22:00,72.2,70.7,30.25,SE,132,1.2,1.2,95,0.00,CLR,,0.00,0.0,WeatherDisplay:10.37,2013-07-15 09:22:00,
2013-07-15 05:27:00,72.2,70.7,30.25,SE,132,0.0,0.0,95,0.00,CLR,,0.00,0.0,WeatherDisplay:10.37,2013-07-15 09:27:00,
2013-07-15 05:32:00,72.2,70.7,30.25,SE,132,0.0,0.0,95,0.00,CLR,,0.00,0.0,WeatherDisplay:10.37,2013-07-15 09:32:00,
2013-07-15 05:37:00,72.1,70.6,30.25,SE,132,1.2,0.0,95,0.00,CLR,,0.00,0.0,WeatherDisplay:10.37,2013-07-15 09:37:00,
2013-07-15 05:42:00,72.0,70.5,30.25,SE,132,1.2,1.2,95,0.00,CLR,,0.00,0.0,WeatherDisplay:10.37,2013-07-15 09:42:00,
2013-07-15 05:47:00,72.0,70.5,30.25,SE,132,1.2,1.2,95,0.00,CLR,,0.00,0.0,WeatherDisplay:10.37,2013-07-15 09:47:00,
2013-07-15 05:52:00,71.9,70.4,30.25,SE,132,2.0,2.0,95,0.00,CLR,,0.00,5.0,WeatherDisplay:10.37,2013-07-15 09:52:00,
2013-07-15 05:57:00,71.8,70.3,30.26,SE,132,0.0,0.0,95,0.00,CLR,,0.00,9.0,WeatherDisplay:10.37,2013-07-15 09:57:00,
2013-07-15 06:02:00,71.7,70.2,30.26,South,171,1.2,1.2,95,0.00,CLR,,0.00,11.0,WeatherDisplay:10.37,2013-07-15 10:02:00,
2013-07-15 06:07:00,71.7,70.2,30.26,South,171,0.0,0.0,95,0.00,CLR,,0.00,14.0,WeatherDisplay:10.37,2013-07-15 10:07:00,
2013-07-15 06:12:00,71.6,70.1,30.26,South,171,0.0,0.0,95,0.00,CLR,,0.00,28.0,WeatherDisplay:10.37,2013-07-15 10:12:00,
2013-07-15 06:17:00,71.7,70.5,30.27,South,171,0.0,0.0,96,0.00,CLR,,0.00,21.0,WeatherDisplay:10.37,2013-07-15 10:17:00,
2013-07-15 06:22:00,71.8,70.6,30.27,South,171,1.2,1.2,96,0.00,CLR,,0.00,32.0,WeatherDisplay:10.37,2013-07-15 10:22:00,
2013-07-15 06:27:00,72.0,70.8,30.27,South,171,2.3,2.3,96,0.00,CLR,,0.00,42.0,WeatherDisplay:10.37,2013-07-15 10:27:00,
2013-07-15 06:32:00,72.1,70.9,30.27,South,171,0.0,0.0,96,0.00,CLR,,0.00,56.0,WeatherDisplay:10.37,2013-07-15 10:32:00,
2013-07-15 06:37:00,72.3,71.1,30.27,South,171,0.0,0.0,96,0.00,CLR,,0.00,44.0,WeatherDisplay:10.37,2013-07-15 10:37:00,
2013-07-15 06:42:00,72.6,71.4,30.27,South,171,0.0,0.0,96,0.00,CLR,,0.00,35.0,WeatherDisplay:10.37,2013-07-15 10:42:00,
2013-07-15 06:47:00,72.8,71.3,30.27,South,171,0.0,0.0,95,0.00,CLR,,0.00,47.0,WeatherDisplay:10.37,2013-07-15 10:47:00,
2013-07-15 06:52:00,73.0,71.5,30.27,South,171,2.3,2.3,95,0.00,CLR,,0.00,109.0,WeatherDisplay:10.37,2013-07-15 10:52:00,
2013-07-15 06:57:00,73.2,71.7,30.27,South,171,1.2,1.2,95,0.00,CLR,,0.00,127.0,WeatherDisplay:10.37,2013-07-15 10:57:00,
2013-07-15 07:02:00,73.5,72.0,30.27,South,171,1.2,1.2,95,0.00,CLR,,0.00,137.0,WeatherDisplay:10.37,2013-07-15 11:02:00,
2013-07-15 07:07:00,73.8,72.0,30.27,South,171,1.2,1.2,94,0.00,CLR,,0.00,148.0,WeatherDisplay:10.37,2013-07-15 11:07:00,
2013-07-15 07:12:00,74.1,72.3,30.27,South,171,1.2,0.0,94,0.00,CLR,,0.00,160.0,WeatherDisplay:10.37,2013-07-15 11:12:00,
2013-07-15 07:17:00,74.4,72.2,30.27,South,171,2.3,2.3,93,0.00,CLR,,0.00,172.0,WeatherDisplay:10.37,2013-07-15 11:17:00,
2013-07-15 07:22:00,74.7,72.5,30.27,South,171,2.0,2.0,93,0.00,CLR,,0.00,185.0,WeatherDisplay:10.37,2013-07-15 11:22:00,
2013-07-15 07:27:00,74.9,72.7,30.28,South,183,1.2,1.2,93,0.00,CLR,,0.00,200.0,WeatherDisplay:10.37,2013-07-15 11:27:00,
2013-07-15 07:32:00,75.3,72.8,30.28,SSW,199,1.2,1.2,92,0.00,CLR,,0.00,214.0,WeatherDisplay:10.37,2013-07-15 11:32:00,
2013-07-15 07:37:00,75.6,73.1,30.28,SSW,199,3.5,3.5,92,0.00,CLR,,0.00,178.0,WeatherDisplay:10.37,2013-07-15 11:37:00,
2013-07-15 07:38:00,75.6,73.1,30.28,SSW,199,2.3,2.3,92,0.00,CLR,,0.00,178.0,WeatherDisplay:10.37,2013-07-15 11:38:00,
2013-07-15 07:43:00,75.9,73.4,30.28,SSW,199,2.3,2.3,92,0.00,CLR,,0.00,171.0,WeatherDisplay:10.37,2013-07-15 11:43:00,
2013-07-15 07:48:00,76.1,73.3,30.28,SSW,199,2.3,2.3,91,0.00,CLR,,0.00,142.0,WeatherDisplay:10.37,2013-07-15 11:48:00,
2013-07-15 07:53:00,76.4,73.6,30.28,SSW,198,2.3,2.3,91,0.00,CLR,,0.00,274.0,WeatherDisplay:10.37,2013-07-15 11:53:00,
2013-07-15 07:58:00,76.7,73.5,30.28,SSW,198,2.3,2.3,90,0.00,CLR,,0.00,290.0,WeatherDisplay:10.37,2013-07-15 11:58:00,
2013-07-15 08:03:00,77.0,74.2,30.28,SSW,198,1.2,1.2,91,0.00,CLR,,0.00,308.0,WeatherDisplay:10.37,2013-07-15 12:03:00,
2013-07-15 08:08:00,77.4,73.9,30.28,SSW,198,1.2,1.2,89,0.00,CLR,,0.00,318.0,WeatherDisplay:10.37,2013-07-15 12:08:00,
2013-07-15 08:13:00,77.6,74.1,30.28,SSW,203,2.3,2.3,89,0.00,CLR,,0.00,332.0,WeatherDisplay:10.37,2013-07-15 12:13:00,
2013-07-15 08:18:00,77.8,74.3,30.28,SSW,203,2.3,2.3,89,0.00,CLR,,0.00,348.0,WeatherDisplay:10.37,2013-07-15 12:18:00,
2013-07-15 08:23:00,77.9,74.4,30.28,SSW,198,3.5,3.5,89,0.00,CLR,,0.00,364.0,WeatherDisplay:10.37,2013-07-15 12:23:00,
2013-07-15 08:28:00,78.2,74.4,30.28,SSW,198,2.3,2.3,88,0.00,CLR,,0.00,380.0,WeatherDisplay:10.37,2013-07-15 12:28:00,
2013-07-15 08:33:00,78.4,74.5,30.28,SSW,197,3.5,3.5,88,0.00,CLR,,0.00,392.0,WeatherDisplay:10.37,2013-07-15 12:33:00,
2013-07-15 08:38:00,78.6,74.7,30.28,SSW,196,3.5,3.5,88,0.00,CLR,,0.00,411.0,WeatherDisplay:10.37,2013-07-15 12:38:00,
2013-07-15 08:43:00,79.0,75.1,30.29,SE,142,3.5,3.5,88,0.00,CLR,,0.00,420.0,WeatherDisplay:10.37,2013-07-15 12:43:00,
2013-07-15 08:48:00,79.3,75.1,30.29,SSE,161,4.0,4.0,87,0.00,CLR,,0.00,432.0,WeatherDisplay:10.37,2013-07-15 12:48:00,
2013-07-15 08:53:00,79.5,74.9,30.29,South,182,3.5,3.5,86,0.00,CLR,,0.00,448.0,WeatherDisplay:10.37,2013-07-15 12:53:00,
2013-07-15 08:58:00,79.6,74.7,30.29,SSW,193,3.5,3.5,85,0.00,CLR,,0.00,462.0,WeatherDisplay:10.37,2013-07-15 12:58:00,
2013-07-15 09:03:00,79.7,74.8,30.29,SSW,192,3.5,3.5,85,0.00,CLR,,0.00,475.0,WeatherDisplay:10.37,2013-07-15 13:03:00,
2013-07-15 09:08:00,80.0,75.8,30.29,SSW,194,1.2,1.2,87,0.00,CLR,,0.00,496.0,WeatherDisplay:10.37,2013-07-15 13:08:00,
2013-07-15 09:13:00,80.3,75.7,30.29,SSW,196,3.5,3.5,86,0.00,CLR,,0.00,490.0,WeatherDisplay:10.37,2013-07-15 13:13:00,
2013-07-15 09:18:00,80.6,75.0,30.29,SW,234,2.0,2.0,83,0.00,CLR,,0.00,512.0,WeatherDisplay:10.37,2013-07-15 13:18:00,
2013-07-15 09:19:00,80.7,75.4,30.29,SSW,210,3.5,3.5,84,0.00,CLR,,0.00,504.0,WeatherDisplay:10.37,2013-07-15 13:19:00,
2013-07-15 09:24:00,81.2,75.9,30.29,West,271,3.5,3.5,84,0.00,CLR,,0.00,529.0,WeatherDisplay:10.37,2013-07-15 13:24:00,
2013-07-15 09:29:00,81.6,75.2,30.28,West,264,3.5,3.5,81,0.00,CLR,,0.00,550.0,WeatherDisplay:10.37,2013-07-15 13:29:00,
2013-07-15 09:34:00,82.0,75.6,30.28,West,279,3.5,3.5,81,0.00,CLR,,0.00,561.0,WeatherDisplay:10.37,2013-07-15 13:34:00,
2013-07-15 09:39:00,82.1,74.9,30.28,NNW,327,8.1,8.1,79,0.00,CLR,,0.00,577.0,WeatherDisplay:10.37,2013-07-15 13:39:00,
2013-07-15 09:44:00,82.3,75.1,30.28,WSW,246,3.5,3.5,79,0.00,CLR,,0.00,598.0,WeatherDisplay:10.37,2013-07-15 13:44:00,
2013-07-15 09:49:00,83.0,76.2,30.28,WNW,300,5.0,5.0,80,0.00,CLR,,0.00,568.0,WeatherDisplay:10.37,2013-07-15 13:49:00,
2013-07-15 09:54:00,82.8,74.8,30.28,WNW,292,9.2,9.2,77,0.00,CLR,,0.00,613.0,WeatherDisplay:10.37,2013-07-15 13:54:00,
2013-07-15 09:59:00,83.0,76.2,30.28,NW,304,5.0,5.0,80,0.00,CLR,,0.00,629.0,WeatherDisplay:10.37,2013-07-15 13:59:00,
2013-07-15 10:04:00,83.3,75.3,30.28,WNW,301,6.9,6.9,77,0.00,CLR,,0.00,638.0,WeatherDisplay:10.37,2013-07-15 14:04:00,
2013-07-15 10:09:00,83.2,76.4,30.28,West,261,3.5,3.5,80,0.00,CLR,,0.00,656.0,WeatherDisplay:10.37,2013-07-15 14:09:00,
2013-07-15 10:14:00,83.1,73.9,30.28,NW,319,5.8,5.8,74,0.00,CLR,,0.00,664.0,WeatherDisplay:10.37,2013-07-15 14:14:00,
2013-07-15 10:19:00,83.6,75.2,30.28,WNW,300,4.6,4.6,76,0.00,CLR,,0.00,679.0,WeatherDisplay:10.37,2013-07-15 14:19:00,
2013-07-15 10:24:00,84.0,76.0,30.28,SW,236,4.6,4.6,77,0.00,CLR,,0.00,691.0,WeatherDisplay:10.37,2013-07-15 14:24:00,
2013-07-15 10:29:00,84.1,75.7,30.28,West,265,5.8,5.8,76,0.00,CLR,,0.00,693.0,WeatherDisplay:10.37,2013-07-15 14:29:00,
2013-07-15 10:34:00,84.2,75.8,30.28,NW,304,6.9,6.9,76,0.00,CLR,,0.00,707.0,WeatherDisplay:10.37,2013-07-15 14:34:00,
2013-07-15 10:39:00,84.4,75.2,30.28,NW,309,3.5,3.5,74,0.00,CLR,,0.00,719.0,WeatherDisplay:10.37,2013-07-15 14:39:00,
2013-07-15 10:44:00,84.3,76.3,30.27,WNW,302,5.8,5.8,77,0.00,CLR,,0.00,728.0,WeatherDisplay:10.37,2013-07-15 14:44:00,
2013-07-15 10:49:00,84.5,75.3,30.27,NW,311,6.9,6.9,74,0.00,CLR,,0.00,733.0,WeatherDisplay:10.37,2013-07-15 14:49:00,
2013-07-15 10:54:00,84.7,76.7,30.27,NW,322,4.6,4.6,77,0.00,CLR,,0.00,745.0,WeatherDisplay:10.37,2013-07-15 14:54:00,
2013-07-15 10:59:00,85.3,76.9,30.27,WNW,296,5.0,5.0,76,0.00,CLR,,0.00,759.0,WeatherDisplay:10.37,2013-07-15 14:59:00,
2013-07-15 11:05:00,85.2,76.0,30.27,NW,310,5.8,5.8,74,0.00,CLR,,0.00,754.0,WeatherDisplay:10.37,2013-07-15 15:05:00,
2013-07-15 11:10:00,85.9,77.4,30.27,WNW,303,5.0,8.0,76,0.00,CLR,,0.00,766.0,WeatherDisplay:10.37,2013-07-15 15:10:00,
2013-07-15 11:15:00,86.1,77.6,30.27,NNW,331,5.8,5.8,76,0.00,CLR,,0.00,782.0,WeatherDisplay:10.37,2013-07-15 15:15:00,
2013-07-15 11:20:00,86.1,75.6,30.27,NW,312,7.0,10.0,71,0.00,CLR,,0.00,775.0,WeatherDisplay:10.37,2013-07-15 15:20:00,
2013-07-15 11:25:00,86.0,76.7,30.27,West,281,2.3,2.3,74,0.00,CLR,,0.00,796.0,WeatherDisplay:10.37,2013-07-15 15:25:00,
2013-07-15 11:30:00,86.3,77.1,30.27,WNW,298,3.0,10.0,74,0.00,CLR,,0.00,807.0,WeatherDisplay:10.37,2013-07-15 15:30:00,
2013-07-15 11:35:00,86.9,76.4,30.27,WNW,302,5.8,5.8,71,0.00,CLR,,0.00,812.0,WeatherDisplay:10.37,2013-07-15 15:35:00,
2013-07-15 11:40:00,87.2,78.7,30.27,NW,325,8.1,8.1,76,0.00,CLR,,0.00,816.0,WeatherDisplay:10.37,2013-07-15 15:40:00,
2013-07-15 11:45:00,87.0,75.6,30.27,WNW,296,7.0,7.0,69,0.00,CLR,,0.00,823.0,WeatherDisplay:10.37,2013-07-15 15:45:00,
2013-07-15 11:50:00,87.3,76.3,30.27,NW,304,6.9,6.9,70,0.00,CLR,,0.00,831.0,WeatherDisplay:10.37,2013-07-15 15:50:00,
2013-07-15 11:55:00,87.1,76.1,30.27,NNW,333,4.6,4.6,70,0.00,CLR,,0.00,840.0,WeatherDisplay:10.37,2013-07-15 15:55:00,
2013-07-15 12:00:00,87.5,77.8,30.27,NNW,330,3.5,3.5,73,0.00,CLR,,0.00,838.0,WeatherDisplay:10.37,2013-07-15 16:00:00,
2013-07-15 12:06:00,87.8,76.4,30.27,NW,305,8.1,8.1,69,0.00,CLR,,0.00,853.0,WeatherDisplay:10.37,2013-07-15 16:06:00,
2013-07-15 12:11:00,87.8,76.4,30.27,NW,312,5.8,5.8,69,0.00,CLR,,0.00,856.0,WeatherDisplay:10.37,2013-07-15 16:11:00,
2013-07-15 12:16:00,87.9,76.5,30.26,NW,325,8.1,8.1,69,0.00,CLR,,0.00,854.0,WeatherDisplay:10.37,2013-07-15 16:16:00,
2013-07-15 12:21:00,88.1,76.6,30.26,NW,311,6.9,6.9,69,0.00,CLR,,0.00,863.0,WeatherDisplay:10.37,2013-07-15 16:21:00,
2013-07-15 12:27:00,88.3,76.4,30.26,NW,309,8.1,8.1,68,0.00,CLR,,0.00,865.0,WeatherDisplay:10.37,2013-07-15 16:27:00,
2013-07-15 12:32:00,88.1,76.2,30.26,WNW,290,5.8,5.8,68,0.00,CLR,,0.00,875.0,WeatherDisplay:10.37,2013-07-15 16:32:00,
2013-07-15 12:37:00,88.3,76.4,30.26,WNW,285,4.6,4.6,68,0.00,CLR,,0.00,861.0,WeatherDisplay:10.37,2013-07-15 16:37:00,
2013-07-15 12:42:00,88.6,76.7,30.25,NW,319,5.8,5.8,68,0.00,CLR,,0.00,874.0,WeatherDisplay:10.37,2013-07-15 16:42:00,
2013-07-15 12:47:00,88.8,77.3,30.25,WNW,289,9.2,9.2,69,0.00,CLR,,0.00,898.0,WeatherDisplay:10.37,2013-07-15 16:47:00,
2013-07-15 12:52:00,88.6,77.1,30.25,NNW,332,6.9,6.9,69,0.00,CLR,,0.00,921.0,WeatherDisplay:10.37,2013-07-15 16:52:00,
2013-07-15 12:57:00,88.6,75.3,30.25,WNW,301,4.6,4.6,65,0.00,CLR,,0.00,940.0,WeatherDisplay:10.37,2013-07-15 16:57:00,
2013-07-15 13:02:00,89.2,77.3,30.25,NW,312,10.4,10.4,68,0.00,CLR,,0.00,877.0,WeatherDisplay:10.37,2013-07-15 17:02:00,
2013-07-15 13:07:00,89.2,76.4,30.25,NW,307,5.8,5.8,66,0.00,CLR,,0.00,907.0,WeatherDisplay:10.37,2013-07-15 17:07:00,
2013-07-15 13:12:00,89.0,75.7,30.25,NW,306,6.9,6.9,65,0.00,CLR,,0.00,916.0,WeatherDisplay:10.37,2013-07-15 17:12:00,
2013-07-15 13:17:00,89.1,76.3,30.24,NW,308,8.1,8.1,66,0.00,CLR,,0.00,874.0,WeatherDisplay:10.37,2013-07-15 17:17:00,
2013-07-15 13:22:00,89.7,75.4,30.24,West,281,9.2,9.2,63,0.00,CLR,,0.00,888.0,WeatherDisplay:10.37,2013-07-15 17:22:00,
2013-07-15 13:28:00,89.9,76.1,30.24,WSW,252,6.9,6.9,64,0.00,CLR,,0.00,905.0,WeatherDisplay:10.37,2013-07-15 17:28:00,
2013-07-15 13:33:00,90.2,76.8,30.24,SW,226,3.5,3.5,65,0.00,CLR,,0.00,909.0,WeatherDisplay:10.37,2013-07-15 17:33:00,
2013-07-15 13:38:00,90.1,76.3,30.24,NW,321,9.2,9.2,64,0.00,CLR,,0.00,898.0,WeatherDisplay:10.37,2013-07-15 17:38:00,
2013-07-15 13:43:00,89.9,75.1,30.24,WNW,299,6.9,6.9,62,0.00,CLR,,0.00,403.0,WeatherDisplay:10.37,2013-07-15 17:43:00,
2013-07-15 13:48:00,90.2,77.3,30.24,WNW,297,9.2,9.2,66,0.00,CLR,,0.00,895.0,WeatherDisplay:10.37,2013-07-15 17:48:00,
2013-07-15 13:53:00,90.4,77.0,30.24,West,279,2.3,2.3,65,0.00,CLR,,0.00,893.0,WeatherDisplay:10.37,2013-07-15 17:53:00,
2013-07-15 13:58:00,91.0,77.1,30.24,NW,309,8.0,8.0,64,0.00,FEW,,0.00,911.0,WeatherDisplay:10.37,2013-07-15 17:58:00,
2013-07-15 14:03:00,90.4,75.6,30.24,NNW,347,3.5,3.5,62,0.00,FEW,,0.00,810.0,WeatherDisplay:10.37,2013-07-15 18:03:00,
2013-07-15 14:08:00,90.7,76.4,30.24,NW,311,10.4,10.4,63,0.00,FEW,,0.00,870.0,WeatherDisplay:10.37,2013-07-15 18:08:00,
2013-07-15 14:14:00,90.9,74.6,30.24,WNW,290,6.9,6.9,59,0.00,FEW,,0.00,853.0,WeatherDisplay:10.37,2013-07-15 18:14:00,
2013-07-15 14:19:00,90.9,76.1,30.23,NW,325,6.9,6.9,62,0.00,FEW,,0.00,858.0,WeatherDisplay:10.37,2013-07-15 18:19:00,
2013-07-15 14:25:00,90.9,74.6,30.23,NW,306,8.1,8.1,59,0.00,FEW,,0.00,882.0,WeatherDisplay:10.37,2013-07-15 18:25:00,
2013-07-15 14:30:00,91.1,74.8,30.23,NW,306,5.0,8.0,59,0.00,FEW,,0.00,860.0,WeatherDisplay:10.37,2013-07-15 18:30:00,
2013-07-15 14:35:00,91.2,74.9,30.23,NW,304,8.1,8.1,59,0.00,FEW,,0.00,858.0,WeatherDisplay:10.37,2013-07-15 18:35:00,
2013-07-15 14:40:00,91.7,75.8,30.23,WNW,298,5.0,8.0,60,0.00,FEW,,0.00,847.0,WeatherDisplay:10.37,2013-07-15 18:40:00,
2013-07-15 14:45:00,91.7,74.8,30.23,NW,320,9.2,9.2,58,0.00,FEW,,0.00,846.0,WeatherDisplay:10.37,2013-07-15 18:45:00,
2013-07-15 14:50:00,91.2,73.8,30.22,NNW,327,4.6,4.6,57,0.00,FEW,,0.00,851.0,WeatherDisplay:10.37,2013-07-15 18:50:00,
2013-07-15 14:56:00,91.8,75.4,30.23,NW,307,7.0,7.0,59,0.00,FEW,,0.00,877.0,WeatherDisplay:10.37,2013-07-15 18:56:00,
2013-07-15 15:02:00,91.9,74.5,30.22,WNW,296,6.9,6.9,57,0.00,FEW,,0.00,844.0,WeatherDisplay:10.37,2013-07-15 19:02:00,
2013-07-15 15:07:00,92.5,76.1,30.22,NW,311,9.2,9.2,59,0.00,FEW,,0.00,791.0,WeatherDisplay:10.37,2013-07-15 19:07:00,
2013-07-15 15:12:00,92.0,77.6,30.22,NW,324,8.1,8.1,63,0.00,FEW,,0.00,828.0,WeatherDisplay:10.37,2013-07-15 19:12:00,
2013-07-15 15:17:00,92.1,74.7,30.22,NW,308,9.2,9.2,57,0.00,FEW,,0.00,858.0,WeatherDisplay:10.37,2013-07-15 19:17:00,
2013-07-15 15:23:00,92.2,75.8,30.22,WNW,296,5.8,5.8,59,0.00,FEW,,0.00,796.0,WeatherDisplay:10.37,2013-07-15 19:23:00,
2013-07-15 15:28:00,92.4,73.3,30.21,NW,321,7.0,7.0,54,0.00,FEW,,0.00,814.0,WeatherDisplay:10.37,2013-07-15 19:28:00,
2013-07-15 15:33:00,92.4,74.4,30.21,NNW,340,9.2,9.2,56,0.00,FEW,,0.00,789.0,WeatherDisplay:10.37,2013-07-15 19:33:00,
2013-07-15 15:38:00,91.7,73.2,30.21,NW,311,9.2,9.2,55,0.00,FEW,,0.00,782.0,WeatherDisplay:10.37,2013-07-15 19:38:00,
2013-07-15 15:44:00,92.4,73.9,30.21,WNW,298,9.0,9.0,55,0.00,FEW,,0.00,810.0,WeatherDisplay:10.37,2013-07-15 19:44:00,
2013-07-15 15:49:00,92.6,74.1,30.21,WNW,300,11.5,11.5,55,0.00,FEW,,0.00,761.0,WeatherDisplay:10.37,2013-07-15 19:49:00,
2013-07-15 15:54:00,92.4,74.4,30.21,West,271,6.9,6.9,56,0.00,FEW,,0.00,751.0,WeatherDisplay:10.37,2013-07-15 19:54:00,
2013-07-15 15:59:00,92.6,75.1,30.21,NW,311,8.1,8.1,57,0.00,CLR,,0.00,726.0,WeatherDisplay:10.37,2013-07-15 19:59:00,
2013-07-15 16:04:00,92.4,75.0,30.21,NW,310,9.2,9.2,57,0.00,CLR,,0.00,703.0,WeatherDisplay:10.37,2013-07-15 20:04:00,
2013-07-15 16:09:00,92.3,73.8,30.21,NW,309,9.2,9.2,55,0.00,CLR,,0.00,691.0,WeatherDisplay:10.37,2013-07-15 20:09:00,
2013-07-15 16:14:00,92.2,74.8,30.21,NNW,333,6.9,6.9,57,0.00,CLR,,0.00,645.0,WeatherDisplay:10.37,2013-07-15 20:14:00,
2013-07-15 16:19:00,92.4,73.9,30.21,WNW,299,6.0,6.0,55,0.00,CLR,,0.00,601.0,WeatherDisplay:10.37,2013-07-15 20:19:00,
2013-07-15 16:24:00,92.7,74.7,30.21,NW,314,8.1,8.1,56,0.00,CLR,,0.00,650.0,WeatherDisplay:10.37,2013-07-15 20:24:00,
2013-07-15 16:29:00,92.4,73.9,30.21,WNW,302,4.0,4.0,55,0.00,CLR,,0.00,650.0,WeatherDisplay:10.37,2013-07-15 20:29:00,
2013-07-15 16:34:00,92.4,72.8,30.21,NW,304,8.0,8.0,53,0.00,CLR,,0.00,608.0,WeatherDisplay:10.37,2013-07-15 20:34:00,
2013-07-15 16:39:00,92.3,72.7,30.21,West,272,3.5,3.5,53,0.00,CLR,,0.00,587.0,WeatherDisplay:10.37,2013-07-15 20:39:00,
2013-07-15 16:44:00,92.5,73.4,30.21,WNW,292,8.1,8.1,54,0.00,CLR,,0.00,580.0,WeatherDisplay:10.37,2013-07-15 20:44:00,
2013-07-15 16:49:00,92.0,72.4,30.20,WNW,302,8.0,8.0,53,0.00,CLR,,0.00,564.0,WeatherDisplay:10.37,2013-07-15 20:49:00,
2013-07-15 16:55:00,92.1,73.1,30.20,WNW,286,8.1,8.1,54,0.00,CLR,,0.00,548.0,WeatherDisplay:10.37,2013-07-15 20:55:00,
2013-07-15 17:00:00,92.4,73.9,30.20,NW,311,8.1,8.1,55,0.00,CLR,,0.00,534.0,WeatherDisplay:10.37,2013-07-15 21:00:00,
2013-07-15 17:05:00,92.5,73.4,30.20,NW,304,6.0,6.0,54,0.00,CLR,,0.00,524.0,WeatherDisplay:10.37,2013-07-15 21:05:00,
2013-07-15 17:10:00,92.4,72.2,30.19,NW,314,8.1,8.1,52,0.00,CLR,,0.00,466.0,WeatherDisplay:10.37,2013-07-15 21:10:00,
2013-07-15 17:15:00,92.5,74.5,30.19,WNW,290,6.9,6.9,56,0.00,CLR,,0.00,492.0,WeatherDisplay:10.37,2013-07-15 21:15:00,
2013-07-15 17:20:00,92.7,73.6,30.19,WNW,293,5.0,5.0,54,0.00,CLR,,0.00,480.0,WeatherDisplay:10.37,2013-07-15 21:20:00,
2013-07-15 17:25:00,92.9,74.4,30.19,NNW,336,8.1,8.1,55,0.00,CLR,,0.00,123.0,WeatherDisplay:10.37,2013-07-15 21:25:00,
2013-07-15 17:32:00,92.7,74.2,30.19,WNW,294,6.9,6.9,55,0.00,CLR,,0.00,404.0,WeatherDisplay:10.37,2013-07-15 21:32:00,
2013-07-15 17:37:00,92.6,74.1,30.19,NW,311,6.9,6.9,55,0.00,CLR,,0.00,438.0,WeatherDisplay:10.37,2013-07-15 21:37:00,
2013-07-15 17:42:00,92.6,73.0,30.19,NW,304,7.0,7.0,53,0.00,CLR,,0.00,424.0,WeatherDisplay:10.37,2013-07-15 21:42:00,
2013-07-15 17:47:00,92.1,73.1,30.19,NW,313,8.1,8.1,54,0.00,CLR,,0.00,397.0,WeatherDisplay:10.37,2013-07-15 21:47:00,
2013-07-15 17:52:00,92.1,74.1,30.19,WNW,294,6.9,6.9,56,0.00,CLR,,0.00,387.0,WeatherDisplay:10.37,2013-07-15 21:52:00,
2013-07-15 17:58:00,92.3,73.8,30.19,WNW,295,8.1,8.1,55,0.00,CLR,,0.00,374.0,WeatherDisplay:10.37,2013-07-15 21:58:00,
2013-07-15 18:03:00,92.2,73.7,30.18,NW,304,8.1,8.1,55,0.00,CLR,,0.00,353.0,WeatherDisplay:10.37,2013-07-15 22:03:00,
2013-07-15 18:08:00,92.1,74.1,30.18,NW,306,5.8,5.8,56,0.00,CLR,,0.00,341.0,WeatherDisplay:10.37,2013-07-15 22:08:00,
2013-07-15 18:13:00,92.3,74.9,30.18,WNW,294,6.9,6.9,57,0.00,CLR,,0.00,322.0,WeatherDisplay:10.37,2013-07-15 22:13:00,
2013-07-15 18:18:00,92.2,74.2,30.18,NW,309,8.1,8.1,56,0.00,CLR,,0.00,304.0,WeatherDisplay:10.37,2013-07-15 22:18:00,
2013-07-15 18:24:00,91.9,75.0,30.18,WNW,300,6.9,6.9,58,0.00,CLR,,0.00,297.0,WeatherDisplay:10.37,2013-07-15 22:24:00,
2013-07-15 18:29:00,91.7,74.3,30.18,NW,311,7.0,7.0,57,0.00,CLR,,0.00,281.0,WeatherDisplay:10.37,2013-07-15 22:29:00,
2013-07-15 18:34:00,91.7,75.8,30.19,NW,319,5.8,5.8,60,0.00,CLR,,0.00,267.0,WeatherDisplay:10.37,2013-07-15 22:34:00,
2013-07-15 18:39:00,91.8,75.4,30.19,WNW,302,9.2,9.2,59,0.00,CLR,,0.00,183.0,WeatherDisplay:10.37,2013-07-15 22:39:00,
2013-07-15 18:44:00,91.7,74.8,30.19,NW,305,8.1,8.1,58,0.00,CLR,,0.00,288.0,WeatherDisplay:10.37,2013-07-15 22:44:00,
2013-07-15 18:50:00,91.7,74.8,30.18,NW,312,9.2,9.2,58,0.00,CLR,,0.00,251.0,WeatherDisplay:10.37,2013-07-15 22:50:00,
2013-07-15 18:55:00,91.6,74.7,30.18,WNW,294,7.0,7.0,58,0.00,CLR,,0.00,162.0,WeatherDisplay:10.37,2013-07-15 22:55:00,
2013-07-15 19:00:00,90.9,74.6,30.19,NNW,340,11.5,11.5,59,0.00,CLR,,0.00,51.0,WeatherDisplay:10.37,2013-07-15 23:00:00,
2013-07-15 19:01:00,90.8,74.5,30.19,NNE,16,11.5,11.5,59,0.00,CLR,,0.00,51.0,WeatherDisplay:10.37,2013-07-15 23:01:00,
2013-07-15 19:06:00,89.3,74.1,30.19,NNE,23,3.5,3.5,61,0.00,CLR,,0.00,40.0,WeatherDisplay:10.37,2013-07-15 23:06:00,
2013-07-15 19:11:00,87.9,72.8,30.19,NE,39,3.5,3.5,61,0.00,CLR,,0.00,33.0,WeatherDisplay:10.37,2013-07-15 23:11:00,
2013-07-15 19:16:00,86.8,72.7,30.19,NNE,28,1.2,1.2,63,0.00,CLR,,0.00,30.0,WeatherDisplay:10.37,2013-07-15 23:16:00,
2013-07-15 19:21:00,86.3,72.7,30.19,NNE,28,1.2,1.2,64,0.00,CLR,,0.00,25.0,WeatherDisplay:10.37,2013-07-15 23:21:00,
2013-07-15 19:26:00,86.1,73.0,30.19,NNE,28,0.0,0.0,65,0.00,CLR,,0.00,18.0,WeatherDisplay:10.37,2013-07-15 23:26:00,
2013-07-15 19:31:00,85.9,72.8,30.19,NNE,28,1.2,1.2,65,0.00,CLR,,0.00,14.0,WeatherDisplay:10.37,2013-07-15 23:31:00,
2013-07-15 19:36:00,85.7,73.5,30.19,NNE,28,0.0,0.0,67,0.00,CLR,,0.00,14.0,WeatherDisplay:10.37,2013-07-15 23:36:00,
2013-07-15 19:41:00,85.2,73.0,30.19,East,94,2.3,2.3,67,0.00,CLR,,0.00,14.0,WeatherDisplay:10.37,2013-07-15 23:41:00,
2013-07-15 19:47:00,84.8,73.1,30.19,East,94,1.2,1.2,68,0.00,CLR,,0.00,16.0,WeatherDisplay:10.37,2013-07-15 23:47:00,
2013-07-15 19:52:00,84.5,73.2,30.18,East,94,0.0,0.0,69,0.00,CLR,,0.00,18.0,WeatherDisplay:10.37,2013-07-15 23:52:00,
2013-07-15 19:57:00,84.4,73.5,30.18,East,94,0.0,0.0,70,0.00,CLR,,0.00,16.0,WeatherDisplay:10.37,2013-07-15 23:57:00,
2013-07-15 20:02:00,84.2,72.9,30.19,East,94,0.0,0.0,69,0.00,FEW,,0.00,9.0,WeatherDisplay:10.37,2013-07-16 00:02:00,
2013-07-15 20:07:00,84.3,73.0,30.19,East,94,0.0,0.0,69,0.00,FEW,,0.00,7.0,WeatherDisplay:10.37,2013-07-16 00:07:00,
2013-07-15 20:12:00,84.3,73.0,30.19,East,94,0.0,0.0,69,0.00,FEW,,0.00,5.0,WeatherDisplay:10.37,2013-07-16 00:12:00,
2013-07-15 20:17:00,84.3,73.0,30.18,East,94,0.0,0.0,69,0.00,FEW,,0.00,0.0,WeatherDisplay:10.37,2013-07-16 00:17:00,
2013-07-15 20:22:00,84.3,73.0,30.19,East,94,0.0,0.0,69,0.00,FEW,,0.00,0.0,WeatherDisplay:10.37,2013-07-16 00:22:00,
2013-07-15 20:28:00,84.2,72.9,30.18,East,94,0.0,0.0,69,0.00,FEW,,0.00,0.0,WeatherDisplay:10.37,2013-07-16 00:28:00,
2013-07-15 20:33:00,84.1,73.3,30.18,East,94,0.0,0.0,70,0.00,FEW,,0.00,0.0,WeatherDisplay:10.37,2013-07-16 00:33:00,
2013-07-15 20:38:00,83.9,73.1,30.18,East,94,0.0,0.0,70,0.00,FEW,,0.00,0.0,WeatherDisplay:10.37,2013-07-16 00:38:00,
2013-07-15 20:44:00,83.7,73.7,30.17,East,94,0.0,0.0,72,0.00,FEW,,0.00,0.0,WeatherDisplay:10.37,2013-07-16 00:44:00,
2013-07-15 20:49:00,83.6,73.6,30.17,East,94,0.0,0.0,72,0.00,FEW,,0.00,0.0,WeatherDisplay:10.37,2013-07-16 00:49:00,
2013-07-15 20:54:00,83.5,73.9,30.17,East,94,1.2,0.0,73,0.00,FEW,,0.00,0.0,WeatherDisplay:10.37,2013-07-16 00:54:00,
2013-07-15 20:59:00,83.3,73.7,30.17,East,94,0.0,0.0,73,0.00,CLR,,0.00,0.0,WeatherDisplay:10.37,2013-07-16 00:59:00,
2013-07-15 21:05:00,83.1,73.9,30.17,East,94,0.0,0.0,74,0.00,CLR,,0.00,0.0,WeatherDisplay:10.37,2013-07-16 01:05:00,
2013-07-15 21:10:00,82.9,74.2,30.17,East,94,0.0,0.0,75,0.00,CLR,,0.00,0.0,WeatherDisplay:10.37,2013-07-16 01:10:00,
2013-07-15 21:15:00,82.6,73.9,30.17,East,94,0.0,0.0,75,0.00,CLR,,0.00,0.0,WeatherDisplay:10.37,2013-07-16 01:15:00,
2013-07-15 21:20:00,82.4,73.7,30.17,East,94,0.0,0.0,75,0.00,CLR,,0.00,0.0,WeatherDisplay:10.37,2013-07-16 01:20:00,
2013-07-15 21:25:00,82.1,73.4,30.17,East,94,0.0,0.0,75,0.00,CLR,,0.00,0.0,WeatherDisplay:10.37,2013-07-16 01:25:00,
2013-07-15 21:30:00,81.9,74.0,30.17,East,94,0.0,0.1,77,0.00,CLR,,0.00,0.0,WeatherDisplay:10.37,2013-07-16 01:30:00,
2013-07-15 21:36:00,81.7,73.8,30.17,East,94,0.0,0.0,77,0.00,CLR,,0.00,0.0,WeatherDisplay:10.37,2013-07-16 01:36:00,
2013-07-15 21:40:00,81.5,74.4,30.16,East,94,0.0,0.0,79,0.00,CLR,,0.00,0.0,WeatherDisplay:10.37,2013-07-16 01:40:00,
2013-07-15 21:45:00,81.3,74.2,30.17,East,94,0.0,0.0,79,0.00,CLR,,0.00,0.0,WeatherDisplay:10.37,2013-07-16 01:45:00,
2013-07-15 21:52:00,81.1,73.6,30.16,East,94,0.0,0.0,78,0.00,CLR,,0.00,0.0,WeatherDisplay:10.37,2013-07-16 01:52:00,
2013-07-15 21:57:00,81.0,73.9,30.16,East,94,0.0,0.0,79,0.00,CLR,,0.00,0.0,WeatherDisplay:10.37,2013-07-16 01:57:00,
2013-07-15 22:03:00,81.0,73.9,30.16,East,94,0.0,0.0,79,0.00,CLR,,0.00,0.0,WeatherDisplay:10.37,2013-07-16 02:03:00,
2013-07-15 22:08:00,80.9,74.1,30.17,East,94,1.2,1.2,80,0.00,CLR,,0.00,0.0,WeatherDisplay:10.37,2013-07-16 02:08:00,
2013-07-15 22:14:00,80.7,74.0,30.17,East,94,1.2,0.0,80,0.00,CLR,,0.00,0.0,WeatherDisplay:10.37,2013-07-16 02:14:00,
2013-07-15 22:19:00,80.5,73.8,30.17,East,94,0.0,0.0,80,0.00,CLR,,0.00,0.0,WeatherDisplay:10.37,2013-07-16 02:19:00,
2013-07-15 22:24:00,80.4,74.0,30.17,East,94,0.0,0.0,81,0.00,CLR,,0.00,0.0,WeatherDisplay:10.37,2013-07-16 02:24:00,
2013-07-15 22:29:00,80.2,73.8,30.17,East,94,0.0,0.0,81,0.00,CLR,,0.00,0.0,WeatherDisplay:10.37,2013-07-16 02:29:00,
2013-07-15 22:35:00,80.0,74.0,30.17,East,101,0.0,0.0,82,0.00,CLR,,0.00,0.0,WeatherDisplay:10.37,2013-07-16 02:35:00,
2013-07-15 22:40:00,79.8,73.8,30.17,East,101,0.0,0.0,82,0.00,CLR,,0.00,0.0,WeatherDisplay:10.37,2013-07-16 02:40:00,
2013-07-15 22:45:00,79.6,73.6,30.17,East,101,0.0,0.0,82,0.00,CLR,,0.00,0.0,WeatherDisplay:10.37,2013-07-16 02:45:00,
2013-07-15 22:50:00,79.5,73.9,30.17,East,101,0.0,0.0,83,0.00,CLR,,0.00,0.0,WeatherDisplay:10.37,2013-07-16 02:50:00,
2013-07-15 22:55:00,79.4,73.8,30.17,East,101,0.0,0.0,83,0.00,CLR,,0.00,0.0,WeatherDisplay:10.37,2013-07-16 02:55:00,
2013-07-15 23:00:00,79.3,73.7,30.17,East,101,0.0,0.0,83,0.00,CLR,,0.00,0.0,WeatherDisplay:10.37,2013-07-16 03:00:00,
2013-07-15 23:05:00,79.3,73.3,30.17,East,101,1.2,1.2,82,0.00,CLR,,0.00,0.0,WeatherDisplay:10.37,2013-07-16 03:05:00,
2013-07-15 23:10:00,79.1,73.1,30.17,East,101,0.0,0.0,82,0.00,CLR,,0.00,0.0,WeatherDisplay:10.37,2013-07-16 03:10:00,
2013-07-15 23:16:00,79.1,73.5,30.17,East,101,0.0,0.0,83,0.00,CLR,,0.00,0.0,WeatherDisplay:10.37,2013-07-16 03:16:00,
2013-07-15 23:22:00,79.0,73.4,30.17,East,101,0.0,0.0,83,0.00,CLR,,0.00,0.0,WeatherDisplay:10.37,2013-07-16 03:22:00,
2013-07-15 23:27:00,79.0,73.4,30.17,East,101,0.0,0.0,83,0.00,CLR,,0.00,0.0,WeatherDisplay:10.37,2013-07-16 03:27:00,
2013-07-15 23:32:00,78.9,73.7,30.17,East,101,1.2,1.2,84,0.00,CLR,,0.00,0.0,WeatherDisplay:10.37,2013-07-16 03:32:00,
2013-07-15 23:37:00,78.8,73.6,30.17,East,101,2.3,2.3,84,0.00,CLR,,0.00,0.0,WeatherDisplay:10.37,2013-07-16 03:37:00,
2013-07-15 23:42:00,78.6,73.4,30.17,East,101,0.0,0.2,84,0.00,CLR,,0.00,0.0,WeatherDisplay:10.37,2013-07-16 03:42:00,
2013-07-15 23:48:00,78.5,73.3,30.17,East,101,0.0,0.0,84,0.00,CLR,,0.00,0.0,WeatherDisplay:10.37,2013-07-16 03:48:00,
2013-07-15 23:53:00,78.4,73.2,30.17,East,101,0.0,0.0,84,0.00,CLR,,0.00,0.0,WeatherDisplay:10.37,2013-07-16 03:53:00,
2013-07-15 23:58:00,78.3,73.4,30.17,East,101,0.0,0.0,85,0.00,CLR,,0.00,0.0,WeatherDisplay:10.37,2013-07-16 03:58:00,